Temp
19 19 19 19 19 19 19 19 19 20 19 20 20 20 20 20 20 20 20 20 20 20 20 20 20 21 21 21 21 21 21 21 21 21 21 21 21 21 21 21 21 21
19 19 19 19 19 19 19 19 19 20 19 20 20 20 20 20 20 20 20 20 20 20 20 20 20 20 20 20 20 21 21 21 21 21 21 21 21 21 21 21 21 21
19 19 19 19 19 19 19 19 19 19 19 19 20 20 20 20 20 20 20 20 20 20 20 20 20 20 20 20 20 20 20 20 21 21 21 21 21 21 21 21 21 21
20 19 20 20 20 19 19 19 19 20 20 20 20 20 20 20 20 20 20 20 20 20 20 20 20 20 20 20 20 20 20 21 21 21 21 21 21 21 21 21 20 20
20 20 20 20 20 20 20 20 20 20 20 20 20 20 20 20 20 20 20 20 20 20 20 20 20 20 20 20 21 21 21 21 21 21 21 21 21 21 21 20 20 20
20 20 20 20 20 20 20 20 20 20 20 20 20 20 20 20 20 20 20 20 20 20 20 20 20 20 20 21 21 21 21 21 21 21 21 21 21 21 21 20 20 20
20 20 20 20 20 20 20 20 20 20 20 20 20 20 20 20 20 20 20 20 20 20 20 20 20 20 20 21 21 21 21 21 21 20 21 21 21 20 20 20 20 20
21 21 21 20 20 20 20 20 20 20 20 19 20 20 20 20 20 20 20 20 20 20 20 20 20 20 20 21 21 21 21 21 21 20 21 21 20 20 20 20 20 20
20 21 21 21 20 20 20 20 20 20 20 19 20 20 20 20 20 20 20 20 20 20 20 20 21 21 20 20 20 21 20 20 20 20 20 20 20 20 20 20 20 20
20 20 21 21 20 20 20 20 20 20 20 20 20 20 20 20 20 20 20 20 20 20 20 20 21 21 20 20 20 20 20 20 20 20 20 20 20 20 20 21 20 20
20 20 20 21 20 20 20 20 20 19 19 20 20 20 20 20 20 20 20 20 20 20 20 20 20 20 20 20 20 20 20 20 20 20 20 20 20 21 21 21 21 21
20 20 20 20 21 21 20 20 20 20 20 20 20 20 20 20 20 20 20 20 20 20 20 20 20 20 20 20 20 20 20 20 20 20 20 20 20 20 21 21 21 21
20 19 19 20 20 20 20 20 20 20 20 20 20 20 20 20 20 20 21 21 21 20 20 20 20 20 20 20 20 20 20 20 20 20 20 20 20 20 20 20 20 20
20 19 19 20 20 20 20 20 20 20 20 20 20 21 21 21 21 21 21 21 21 20 20 20 20 20 20 20 20 20 20 20 20 20 19 20 20 20 20 20 20 20
20 19 19 20 20 20 20 20 20 20 20 21 21 21 21 21 21 21 21 21 21 20 20 20 20 20 20 20 20 20 20 20 20 20 20 20 20 20 20 20 20 20
20 20 20 20 20 20 20 20 20 20 20 21 21 21 21 21 21 21 21 21 21 20 20 20 20 20 20 20 20 20 20 20 19 19 19 20 20 20 20 20 20 20
20 20 20 20 20 20 20 21 21 21 21 21 21 21 21 21 21 21 21 21 21 21 20 20 20 20 20 21 20 20 20 19 19 19 20 19 20 20 20 20 20 20
20 20 20 20 20 20 20 21 21 21 21 21 21 21 21 21 21 21 21 21 21 21 21 20 20 20 20 20 20 20 20 20 20 19 20 20 20 20 20 20 20 20
20 20 20 20 20 20 20 21 21 21 21 21 21 21 21 21 21 21 21 21 21 21 21 21 20 20 20 20 20 20 20 20 19 19 19 20 20 20 20 20 20 20
21 21 20 20 20 20 20 21 21 21 21 21 21 21 21 21 21 21 21 21 21 21 21 21 20 20 20 20 20 20 20 20 20 20 20 20 20 20 20 20 20 20
21 20 20 20 20 20 20 21 21 21 21 21 21 21 21 21 21 21 21 20 20 21 21 21 21 21 20 20 20 20 20 20 20 20 20 20 20 20 20 20 20 20
21 21 20 20 20 20 20 20 20 20 21 21 21 21 21 21 21 21 21 20 20 21 21 21 21 21 20 20 20 20 19 19 19 19 19 19 20 20 20 20 20 20
20 20 20 20 20 19 19 19 20 20 20 20 20 20 20 20 20 20 20 20 20 20 20 20 20 20 20 20 20 20 19 19 19 19 19 19 19 20 20 20 20 20
19 19 19 19 19 19 20 20 20 19 20 20 20 20 20 20 20 20 20 20 20 20 20 20 20 20 19 19 19 19 19 19 19 19 19 19 19 19 20 20 20 20
18 19 19 19 19 20 20 20 20 19 19 19 19 19 20 20 20 20 20 20 20 19 19 20 20 19 19 18 19 19 19 19 19 19 19 19 19 19 19 20 20 20
18 19 18 18 19 20 20 19 19 19 19 19 19 19 19 19 19 19 19 19 19 19 19 19 19 19 18 18 18 19 19 19 19 19 19 19 18 19 19 19 19 19
Height
1566 1567 1568 1569 1571 1571 1572 1573 1574 1575 1576 1577 1578 1579 1580 1581 1582 1583 1583 1584 1585 1586 1586 1587 1588 1589 1590 1590 1591 1591 1591 1591 1591 1592 1592 1593 1593 1593 1594 1594 1594 1595
1565 1566 1567 1568 1569 1571 1571 1573 1574 1575 1575 1576 1577 1578 1579 1580 1581 1582 1583 1583 1584 1585 1586 1587 1587 1588 1589 1589 1590 1590 1590 1591 1591 1591 1591 1592 1592 1592 1593 1593 1593 1593
1564 1565 1566 1567 1568 1569 1570 1572 1573 1574 1575 1575 1576 1578 1578 1579 1580 1581 1582 1583 1583 1584 1585 1586 1587 1587 1588 1589 1589 1590 1590 1590 1590 1590 1590 1591 1591 1591 1591 1592 1592 1592
1562 1563 1565 1566 1567 1568 1569 1570 1571 1572 1573 1574 1575 1576 1577 1578 1579 1580 1581 1582 1582 1583 1584 1585 1586 1586 1587 1588 1588 1589 1589 1589 1590 1589 1589 1589 1590 1590 1590 1590 1591 1590
1561 1562 1564 1565 1566 1567 1568 1569 1570 1571 1572 1573 1574 1575 1576 1577 1578 1579 1580 1581 1581 1582 1583 1584 1584 1585 1586 1587 1587 1587 1588 1588 1588 1588 1588 1588 1589 1589 1589 1589 1589 1589
1560 1561 1563 1564 1565 1566 1567 1568 1569 1570 1570 1571 1573 1574 1575 1576 1577 1577 1578 1579 1580 1581 1582 1583 1583 1584 1585 1585 1586 1586 1586 1587 1587 1587 1587 1587 1587 1588 1588 1588 1588 1588
1558 1560 1561 1562 1564 1565 1565 1566 1567 1568 1569 1570 1572 1573 1574 1574 1575 1576 1577 1578 1579 1580 1581 1582 1583 1583 1584 1584 1585 1585 1585 1585 1586 1586 1586 1586 1587 1587 1587 1587 1587 1587
1557 1558 1559 1561 1562 1563 1564 1565 1566 1567 1568 1569 1570 1571 1572 1573 1574 1575 1576 1577 1578 1579 1580 1581 1582 1582 1583 1583 1584 1584 1584 1584 1585 1585 1585 1586 1586 1586 1586 1586 1586 1586
1555 1556 1558 1559 1560 1561 1562 1563 1564 1566 1567 1568 1569 1570 1571 1572 1573 1574 1575 1576 1577 1578 1578 1579 1580 1581 1581 1582 1582 1582 1583 1583 1584 1584 1584 1585 1585 1584 1584 1584 1583 1583
1554 1555 1556 1557 1558 1559 1560 1561 1563 1564 1565 1566 1568 1569 1569 1571 1572 1573 1574 1575 1575 1576 1577 1578 1578 1579 1579 1580 1580 1581 1581 1582 1582 1583 1583 1583 1582 1581 1582 1582 1582 1582
1552 1553 1554 1555 1556 1557 1558 1559 1561 1562 1563 1564 1566 1567 1568 1569 1570 1571 1572 1573 1574 1574 1575 1576 1576 1577 1577 1578 1578 1579 1579 1580 1581 1581 1581 1580 1579 1579 1580 1580 1580 1580
1550 1552 1552 1553 1554 1555 1556 1558 1559 1560 1561 1562 1564 1565 1566 1567 1568 1569 1570 1571 1572 1572 1573 1574 1574 1575 1576 1576 1576 1577 1578 1578 1579 1579 1579 1578 1577 1578 1578 1578 1578 1578
1548 1550 1551 1552 1553 1554 1555 1556 1557 1558 1559 1560 1562 1563 1564 1565 1566 1567 1568 1569 1570 1571 1572 1573 1574 1575 1575 1575 1575 1575 1576 1577 1577 1577 1576 1576 1576 1576 1576 1576 1576 1576
1546 1548 1549 1551 1552 1553 1554 1555 1556 1557 1558 1559 1560 1561 1562 1563 1564 1565 1566 1567 1569 1570 1571 1572 1573 1574 1574 1574 1574 1575 1575 1575 1575 1575 1574 1573 1574 1574 1574 1574 1574 1574
1544 1546 1548 1549 1550 1551 1553 1553 1554 1555 1556 1557 1558 1559 1560 1561 1561 1563 1564 1565 1567 1568 1569 1570 1571 1571 1571 1572 1572 1573 1573 1573 1573 1572 1572 1571 1571 1571 1572 1572 1573 1573
1542 1544 1546 1547 1548 1549 1550 1551 1552 1553 1554 1555 1556 1557 1558 1558 1560 1561 1562 1563 1565 1566 1567 1567 1568 1568 1568 1568 1569 1569 1571 1571 1570 1570 1570 1569 1569 1569 1570 1570 1570 1570
1539 1541 1542 1544 1545 1546 1547 1548 1550 1551 1552 1553 1554 1555 1555 1556 1558 1559 1560 1561 1563 1564 1564 1565 1565 1564 1564 1565 1566 1566 1568 1568 1568 1568 1568 1568 1568 1568 1568 1568 1568 1568
1535 1537 1538 1540 1542 1543 1544 1545 1547 1548 1549 1550 1551 1552 1553 1554 1555 1557 1558 1559 1560 1561 1562 1562 1562 1562 1562 1563 1563 1564 1565 1565 1565 1565 1565 1565 1565 1565 1566 1566 1566 1566
1532 1533 1535 1536 1538 1540 1541 1543 1544 1545 1546 1548 1549 1550 1551 1552 1553 1555 1556 1557 1558 1559 1559 1559 1560 1560 1560 1561 1561 1561 1562 1562 1562 1563 1562 1563 1563 1563 1563 1564 1564 1564
1529 1531 1532 1534 1536 1537 1539 1540 1542 1543 1545 1546 1547 1548 1550 1550 1551 1553 1553 1555 1555 1556 1557 1557 1557 1558 1558 1559 1559 1559 1560 1560 1560 1560 1560 1561 1561 1561 1561 1561 1562 1562
1526 1527 1529 1531 1533 1535 1537 1538 1540 1542 1543 1545 1546 1547 1548 1549 1550 1550 1551 1552 1553 1554 1554 1555 1555 1555 1556 1556 1557 1557 1558 1558 1558 1558 1558 1559 1559 1559 1559 1559 1559 1559
1522 1524 1526 1529 1530 1532 1533 1535 1537 1539 1541 1543 1544 1545 1546 1547 1547 1548 1549 1550 1550 1551 1551 1552 1552 1553 1553 1554 1555 1555 1556 1556 1557 1557 1557 1557 1557 1557 1557 1557 1557 1557
1518 1519 1522 1524 1525 1528 1531 1534 1536 1538 1540 1540 1541 1543 1543 1544 1545 1546 1547 1547 1548 1548 1549 1549 1550 1551 1551 1552 1553 1553 1554 1554 1555 1555 1555 1555 1556 1556 1555 1555 1555 1555
1515 1518 1520 1521 1523 1528 1533 1535 1536 1537 1538 1538 1539 1540 1541 1542 1543 1544 1544 1545 1545 1546 1546 1547 1548 1548 1549 1550 1551 1551 1552 1552 1553 1553 1553 1554 1554 1554 1553 1553 1553 1553
1517 1520 1520 1521 1524 1528 1531 1532 1533 1534 1535 1536 1537 1538 1539 1540 1541 1541 1542 1542 1542 1543 1543 1544 1546 1546 1547 1548 1549 1550 1551 1551 1551 1551 1551 1552 1552 1552 1552 1551 1551 1551
1517 1518 1518 1521 1525 1527 1528 1530 1532 1533 1534 1535 1535 1536 1537 1537 1538 1538 1538 1539 1539 1539 1540 1542 1543 1544 1545 1547 1548 1549 1549 1549 1549 1549 1549 1550 1550 1550 1550 1549 1549 1549
Wind_Speed
25 24 23 24 23 22 21 20 19 17 15 16 17 17 17 16 16 17 16 16 16 16 16 16 16 16 15 13 12 12 11 10 11 11 11 12 12 12 12 11 11 10
27 25 24 24 24 22 21 21 19 17 16 16 16 16 17 17 17 17 17 17 17 17 16 16 15 15 14 13 13 12 11 10 10 9 10 11 11 12 12 13 12 11
27 27 25 24 24 23 22 22 21 19 17 17 16 16 16 17 17 17 17 16 16 16 16 15 14 13 13 13 13 11 11 11 9 9 9 10 11 11 12 13 13 11
28 28 26 24 23 23 22 22 21 20 19 18 18 17 16 16 18 18 17 16 15 16 16 15 13 13 13 13 13 12 12 12 11 10 10 10 11 11 11 13 13 12
29 27 26 24 23 23 22 22 21 20 20 19 19 19 17 16 18 19 18 16 16 16 16 15 14 14 14 14 13 13 12 12 11 11 11 11 10 9 8 10 11 11
29 27 26 25 23 22 22 22 21 21 20 19 19 19 17 17 17 17 17 17 16 17 17 16 15 15 15 14 14 13 12 12 11 11 12 11 10 10 9 9 11 12
28 27 25 25 23 21 22 21 20 20 21 19 19 18 17 16 16 16 16 16 16 16 16 15 16 16 15 15 15 13 13 12 12 12 12 11 10 10 9 8 9 12
28 27 26 25 24 22 22 21 19 19 19 20 20 18 16 16 15 14 14 14 14 14 14 14 15 15 14 13 13 13 13 12 12 12 12 10 8 7 7 8 9 11
27 27 26 24 23 23 22 21 20 18 17 19 20 18 16 16 16 14 13 13 13 12 11 12 14 13 12 11 10 11 12 11 11 11 10 9 9 10 10 11 12 12
27 26 26 25 24 23 23 21 20 19 18 18 18 17 17 17 16 14 13 13 14 13 11 10 12 13 12 10 10 11 12 11 10 10 10 11 13 14 14 13 12 12
27 26 26 26 25 24 24 21 21 21 20 20 19 18 17 17 16 15 14 14 14 14 14 13 12 13 13 12 12 14 14 12 12 11 12 13 15 14 14 13 13 12
27 25 25 26 26 25 24 23 22 22 21 21 21 20 19 19 18 16 16 15 14 14 15 16 14 14 14 14 14 15 16 15 14 13 14 15 15 14 14 14 13 12
28 26 23 23 24 24 25 24 22 21 21 21 20 19 20 21 21 20 19 18 16 15 15 17 16 16 16 15 14 15 17 17 16 15 16 17 16 16 16 16 15 15
29 27 24 21 20 20 22 25 24 21 21 22 21 19 19 20 21 21 20 20 19 17 16 18 19 20 19 17 15 16 18 18 18 19 20 19 18 18 18 18 17 17
27 28 25 21 20 18 18 22 25 23 21 21 22 22 21 20 20 20 20 22 22 20 18 19 20 22 23 22 22 22 20 19 18 19 21 22 21 21 20 18 17 16
25 27 27 24 22 21 18 20 23 25 24 22 22 22 23 23 22 21 21 21 22 21 20 20 20 22 24 24 25 23 19 17 17 17 18 20 21 21 19 17 17 17
26 27 29 27 25 24 23 22 23 24 25 25 23 23 24 25 25 24 23 21 21 21 21 21 20 19 20 20 21 21 18 17 18 19 17 17 18 18 18 17 17 18
29 29 30 30 28 27 27 26 25 24 24 24 25 24 23 24 25 26 24 23 22 20 20 21 21 20 19 18 20 20 19 19 20 20 19 18 18 17 17 17 16 16
31 30 31 32 31 28 28 28 27 26 25 24 23 22 20 21 24 25 24 24 22 20 19 20 22 22 21 21 22 22 21 20 21 21 21 20 19 18 17 16 16 16
33 31 31 32 33 30 29 29 28 27 26 25 24 22 19 19 21 23 24 24 23 21 21 22 24 24 24 23 24 24 24 23 22 22 21 20 18 17 16 16 16 16
35 33 32 32 33 32 30 29 28 26 25 25 25 24 23 22 22 22 23 23 23 23 23 24 25 25 25 24 24 25 26 24 23 23 21 20 18 17 16 16 16 16
36 35 33 32 33 34 32 30 29 27 25 24 25 25 26 26 26 26 25 24 24 24 25 25 25 24 23 22 23 24 25 24 24 23 22 21 20 18 17 17 16 17
37 36 34 33 33 31 28 26 25 25 25 25 24 25 25 26 26 27 26 25 25 25 25 24 23 22 21 21 22 23 24 24 22 21 21 20 20 18 17 17 16 16
32 31 31 30 27 23 21 21 22 23 24 24 23 23 23 24 24 24 23 23 23 24 24 22 21 21 21 21 22 22 23 22 20 19 19 18 17 17 16 16 16 16
26 26 27 26 22 19 18 20 21 22 21 21 21 22 22 22 22 22 22 23 23 24 24 23 21 21 21 21 21 21 21 20 19 19 18 17 17 17 17 17 17 17
22 24 25 21 18 17 18 19 20 20 20 20 21 22 22 22 22 22 22 23 24 25 25 24 22 21 21 21 21 20 19 19 19 19 18 18 18 18 18 19 19 18
Wind_Direction
191 195 198 200 203 204 205 208 210 209 204 205 207 204 202 201 199 200 203 205 208 209 207 209 213 216 219 224 229 232 227 220 222 227 229 230 229 230 232 236 243 251
193 197 200 202 205 206 208 210 211 211 209 207 207 205 204 202 201 202 204 207 212 214 211 212 215 216 219 223 225 225 219 217 221 225 226 226 226 230 235 236 239 249
198 201 202 203 205 207 208 211 213 214 213 210 208 208 206 203 204 206 206 208 215 219 218 216 216 219 224 226 225 224 219 219 224 224 223 226 227 227 228 229 233 242
201 204 205 204 204 205 208 209 211 211 211 210 209 207 206 204 206 210 210 209 215 220 220 220 222 224 227 225 226 227 225 225 228 225 225 230 233 230 225 226 230 237
205 206 208 207 204 204 207 208 208 207 205 206 206 205 205 205 207 213 215 211 212 217 219 221 224 225 224 222 223 225 225 226 228 230 232 234 238 239 233 229 229 235
208 209 209 210 208 205 207 207 206 204 202 201 201 201 201 204 209 215 216 213 211 214 216 218 219 218 219 221 223 224 223 222 224 230 234 233 236 240 240 237 233 235
210 210 209 210 211 210 210 210 207 206 205 201 197 196 197 200 208 212 214 216 218 216 214 216 217 216 219 223 226 226 225 225 224 225 232 233 232 237 243 250 249 246
210 210 209 209 211 212 211 211 210 208 207 205 201 198 199 202 204 204 209 218 222 222 221 223 221 216 215 222 227 225 224 228 229 231 238 241 240 246 251 253 253 249
209 210 209 209 210 210 208 208 209 205 202 205 206 203 203 207 208 208 214 220 219 217 220 227 224 210 202 212 222 221 220 227 235 241 247 247 248 253 252 247 244 241
211 211 211 210 209 208 205 204 205 203 199 202 207 208 207 211 215 215 219 223 218 209 209 220 218 208 206 218 229 231 231 234 240 246 247 245 246 251 254 253 252 253
212 212 212 211 210 207 205 204 204 204 204 205 207 211 213 215 217 217 220 227 225 217 213 213 212 214 224 234 238 238 238 242 250 256 255 254 255 259 263 263 265 270
213 211 211 211 211 210 208 206 204 203 205 206 208 211 215 217 219 218 220 226 231 229 223 218 217 226 235 238 237 235 236 243 254 257 257 260 264 269 273 270 267 268
212 212 213 213 212 212 211 207 203 202 202 203 207 211 211 214 219 223 225 228 231 233 231 227 228 237 243 241 235 231 234 245 253 251 249 255 261 264 270 272 271 270
212 212 214 215 211 211 211 207 202 202 205 207 212 214 212 212 217 223 227 228 228 229 229 228 230 238 243 244 241 239 244 252 255 247 243 248 253 256 263 269 274 276
213 211 213 215 212 209 212 208 204 205 208 212 216 220 222 220 218 219 222 225 226 227 229 232 235 238 240 242 244 246 249 254 253 246 244 247 252 257 262 268 275 279
214 210 211 215 214 209 209 209 207 210 215 218 219 221 226 226 222 220 219 221 224 227 232 238 241 241 240 240 241 241 243 247 251 254 255 255 255 258 264 269 275 278
213 208 207 212 214 211 211 211 209 212 219 222 222 223 228 228 225 222 222 223 227 232 239 244 246 245 242 240 238 234 233 239 248 258 262 261 259 259 263 269 274 276
212 209 206 208 212 212 212 214 212 214 219 222 222 225 228 227 224 224 225 228 232 238 244 248 250 251 248 244 240 236 234 237 243 251 258 262 263 263 264 268 273 276
213 212 209 208 210 211 212 215 215 216 221 224 224 224 224 222 222 224 227 231 235 242 248 251 253 253 251 248 244 241 239 238 240 246 254 261 263 264 265 267 270 273
214 215 213 211 212 211 211 213 215 217 221 225 229 229 226 222 222 225 229 232 236 243 249 254 255 254 252 248 243 241 240 240 242 248 253 258 261 264 266 266 267 269
215 216 215 214 215 215 215 215 216 217 219 224 230 233 234 234 232 233 235 237 241 246 250 254 256 257 256 250 243 240 240 241 245 249 251 254 259 264 266 266 267 269
218 218 218 218 219 219 218 217 217 218 221 225 230 234 237 239 240 242 244 246 248 250 252 253 254 255 255 250 244 241 241 243 246 249 251 253 257 262 266 266 268 270
217 215 216 217 217 216 217 217 217 219 224 228 232 235 237 240 242 244 247 249 250 251 252 252 252 251 250 248 246 244 242 244 246 248 251 255 258 261 263 265 267 269
215 212 213 215 215 217 223 225 222 222 227 230 233 235 237 238 241 244 246 249 249 250 250 249 248 247 246 246 245 243 243 244 245 246 250 255 259 260 263 266 268 270
218 220 222 220 218 219 225 227 223 222 226 229 232 236 238 239 242 244 247 248 247 247 246 245 245 245 246 245 243 242 244 246 246 248 252 256 260 262 265 267 269 272
215 217 217 214 211 213 219 222 222 225 229 231 234 237 238 240 242 242 243 244 245 245 245 244 243 243 243 243 243 244 248 250 250 252 254 256 258 262 265 266 268 271